Regional Weather Roundup
Issued by NWS

Home | Current Version | Previous Version | Text Only | Print | Product List | Glossary On
Versions: 1 2 3 4 5 6 7 8 9 10 11 12 13 14 15 16 17 18 19 20 21 22 23 24 25 26 27 28 29 30 31 32 33 34 35 36 37 38 39 40 41 42 43 44 45 46 47 48 49 50
000
ASUS44 KMEG 291210
RWRTN
TENNESSEE HOURLY STATE WEATHER ROUNDUP
NATIONAL WEATHER SERVICE MEMPHIS TN
700 AM CDT FRI AUG 29 2014

TNZ002-004-019-021-049-052-054-088>092-291300-
WEST TENNESSEE

CITY           SKY/WX    TMP DP  RH WIND       PRES   REMARKS
MEMPHIS INTL   PTCLDY    74  66  76 S3        29.97R
NWS MEMPHIS      N/A     72 N/A N/A MISG        N/A
JACKSON        CLEAR     69  67  93 SE6       29.99R
DYERSBURG      CLEAR     72  63  73 CALM      29.98S
UNION CITY     CLEAR     66  66 100 CALM      29.97R
PARIS          CLEAR     68  66  94 CALM      30.00R
HUNTINGDON     CLEAR     68  67  96 CALM      30.00R
LEXINGTON      CLOUDY    66  66 100 CALM      30.00R VSB 0
SAVANNAH       PTCLDY    68  68 100 CALM      30.01R
$$

TNZ008-025-027-028-033-062-065-066-291300-
NORTH MIDDLE TENNESSEE

CITY           SKY/WX    TMP DP  RH WIND       PRES   REMARKS
NASHVILLE      PTCLDY    72  69  90 S3        30.04R
DICKSON        CLEAR     72  66  83 SE3       30.02R
PORTLAND       CLEAR     70  70 100 S6        30.03R
CLARKSVILLE    CLEAR     70  69  97 E3        30.01R FOG
LEBANON        PTCLDY    68  67  96 CALM      30.03R
SMYRNA         CLEAR     69  69 100 SE5       30.05R
MURFREESBORO   CLEAR     70  67  90 CALM      30.03R
COOKEVILLE     CLEAR     66  66 100 CALM      30.07R
GALLATIN       CLOUDY    70  70 100 CALM      30.05  VSB<1/4
CROSSVILLE     CLEAR     71  65  81 CALM      30.13R HAZE
$$

TNZ061-075-076-078-094-096-097-291300-
SOUTH MIDDLE TENNESSEE

CITY           SKY/WX    TMP DP  RH WIND       PRES   REMARKS
LEWISBURG      CLEAR     62  61  97 CALM      30.04R
FAYETTEVILLE   CLEAR     68  61  77 S5        30.06R
TULLAHOMA      CLEAR     64  61  88 CALM      30.08R
WINCHESTER     CLEAR     68  63  83 CALM      30.07S
MCMINNVILLE    PTCLDY    64  64 100 CALM      30.07S
COLUMBIA         N/A     66  66 100 CALM      30.02R
SHELBYVILLE    CLEAR     70  66  88 E5        30.06R
$$

TNZ017-018-042-046-047-291300-
NORTHEAST TENNESSEE

CITY           SKY/WX    TMP DP  RH WIND       PRES   REMARKS
TRI CITIES     MOSUNNY   68  64  87 CALM      30.13R
ELIZABETHTON   SUNNY     66  64  94 NE3       30.14R
$$

TNZ012-013-036-069-073-074-291300-
CENTRAL EAST TENNESSEE

CITY           SKY/WX    TMP DP  RH WIND       PRES   REMARKS
KNOXVILLE      MOSUNNY   72  70  93 CALM      30.08R FOG
OAK RIDGE      CLEAR     73  70  90 CALM      30.10R FOG
GATLINBURG     SUNNY     68  66  94 CALM      30.09R
MORRISTOWN     SUNNY     70  68  94 E5        30.11R
$$

TNZ083-085-099-291300-
SOUTHEAST TENNESSEE

CITY           SKY/WX    TMP DP  RH WIND       PRES   REMARKS
CHATTANOOGA    PTCLDY    68  63  84 CALM      30.08R
$$

SKY/WX REPORTED AS FAIR MEANS FEW OR NO CLOUDS BELOW
12 THOUSAND FEET.



USA.gov is the U.S. government's official web portal to all federal, state and local government web resources and services.